Location: B�rgermoos
(47.6500°N, 9.0667°E)
Time: 14:19:14
(UTC+00:00)

Abrixas rocket - Pass Details

Date: 18 September 2020
Orbit: 328 x 336 km, 48.4° (Epoch: 23 October)

Event Time Altitude Azimuth Distance (km) Brightness Sun altitude
Rises 17:56:03 0° 247° (WSW) 2,094 6.9 -5.4°
Reaches altitude 10° 17:58:03 10° 244° (WSW) 1,257 5.6 -5.7°
Maximum altitude 18:00:50 63° 162° (SSE) 372 1.9 -6.2°
Drops below altitude 10° 18:03:36 10° 80° (E) 1,256 4.1 -6.6°
Enters shadow 18:03:56 - 79° (E) 1,393 4.3 -6.7°
